When you browse on this site, cookies collect data to enhance your experience and personalize the content and advertising you see.
Visit our Privacy Policy to learn more. By continuing to use the site, you agree to this use of cookies and data.
  • In United Kingdom
  • List of Countries
  • For 7 days
  • Water Temperature
  • Satellite Maps
  • Weather Map
  • Weather Widgets
  • user-avatar
    Login

    Hourly Weather Tlacolula de Matamoros

    Today, 20 January, Sunday

    Time Temperature Precipitation Wind Pressure Humidity
    00:00 +15°C° 0 mm 2 mps 630 mmHg 80%
    01:00 +14°C° 0 mm 2 mps 630 mmHg 79%
    02:00 +13°C° 0 mm 3 mps 630 mmHg 78%
    03:00 +12°C° 0 mm 3 mps 629 mmHg 77%
    04:00 +11°C° 0 mm 3 mps 629 mmHg 77%
    05:00 +11°C° 0 mm 3 mps 629 mmHg 77%
    06:00 +10°C° 0 mm 3 mps 629 mmHg 77%
    07:00 +11°C° 0 mm 3 mps 630 mmHg 73%
    08:00 +12°C° 0 mm 3 mps 631 mmHg 70%
    09:00 +12°C° 0 mm 3 mps 631 mmHg 66%
    10:00 +14°C° 0 mm 3 mps 632 mmHg 60%
    11:00 +17°C° 0 mm 3 mps 632 mmHg 55%
    12:00 +18°C° 0 mm 3 mps 633 mmHg 49%
    13:00 +19°C° 0 mm 3 mps 632 mmHg 48%
    14:00 +19°C° 0 mm 3 mps 632 mmHg 46%
    15:00 +20°C° 0 mm 3 mps 632 mmHg 44%
    16:00 +18°C° 0 mm 3 mps 631 mmHg 50%
    17:00 +17°C° 0 mm 3 mps 631 mmHg 55%
    18:00 +14°C° 0 mm 3 mps 630 mmHg 61%
    19:00 +13°C° 0 mm 3 mps 630 mmHg 66%
    20:00 +11°C° 0 mm 3 mps 630 mmHg 71%
    21:00 +9°C° 0 mm 3 mps 630 mmHg 75%
    22:00 +9°C° 0 mm 2 mps 630 mmHg 75%
    23:00 +9°C° 0 mm 2 mps 630 mmHg 74%

    Tomorrow, 21 January, Monday

    Time Temperature Precipitation Wind Pressure Humidity
    00:00 +8°C° 0 mm 2 mps 630 mmHg 74%
    01:00 +8°C° 0 mm 2 mps 629 mmHg 74%
    02:00 +8°C° 0 mm 2 mps 629 mmHg 73%
    03:00 +7°C° 0 mm 2 mps 628 mmHg 73%
    04:00 +7°C° 0 mm 2 mps 628 mmHg 72%
    05:00 +7°C° 0 mm 2 mps 628 mmHg 71%
    06:00 +7°C° 0 mm 2 mps 628 mmHg 70%
    07:00 +9°C° 0 mm 2 mps 629 mmHg 62%
    08:00 +12°C° 0 mm 2 mps 630 mmHg 53%
    09:00 +14°C° 0 mm 2 mps 631 mmHg 45%
    10:00 +18°C° 0 mm 1 mps 632 mmHg 38%
    11:00 +21°C° 0 mm 1 mps 633 mmHg 30%
    12:00 +24°C° 0 mm 1 mps 633 mmHg 23%
    13:00 +24°C° 0 mm 1 mps 633 mmHg 22%
    14:00 +25°C° 0 mm 1 mps 632 mmHg 22%
    15:00 +25°C° 0 mm 1 mps 631 mmHg 21%
    16:00 +23°C° 0 mm 1 mps 631 mmHg 29%
    17:00 +22°C° 0 mm 1 mps 630 mmHg 36%
    18:00 +20°C° 0 mm 1 mps 629 mmHg 44%
    19:00 +18°C° 0 mm 1 mps 629 mmHg 50%
    20:00 +15°C° 0 mm 1 mps 629 mmHg 57%
    21:00 +14°C° 0 mm 1 mps 629 mmHg 63%
    22:00 +13°C° 0 mm 1 mps 629 mmHg 63%
    23:00 +13°C° 0 mm 1 mps 629 mmHg 64%

    Day after tomorrow, 22 January, Tuesday

    Time Temperature Precipitation Wind Pressure Humidity
    00:00 +13°C° 0 mm 1 mps 629 mmHg 64%
    01:00 +13°C° 0 mm 1 mps 628 mmHg 62%
    02:00 +12°C° 0 mm 1 mps 628 mmHg 60%
    03:00 +12°C° 0 mm 2 mps 627 mmHg 57%
    04:00 +12°C° 0 mm 2 mps 627 mmHg 55%
    05:00 +12°C° 0 mm 2 mps 627 mmHg 54%
    06:00 +12°C° 0 mm 2 mps 627 mmHg 52%
    07:00 +14°C° 0 mm 2 mps 628 mmHg 46%
    08:00 +16°C° 0 mm 1 mps 629 mmHg 41%
    09:00 +20°C° 0 mm 1 mps 630 mmHg 35%
    10:00 +21°C° 0 mm 2 mps 631 mmHg 31%
    11:00 +24°C° 0 mm 2 mps 631 mmHg 27%
    12:00 +26°C° 0 mm 2 mps 632 mmHg 23%
    13:00 +26°C° 0 mm 3 mps 631 mmHg 23%
    14:00 +27°C° 0 mm 3 mps 630 mmHg 22%
    15:00 +27°C° 0 mm 4 mps 630 mmHg 22%
    16:00 +26°C° 0 mm 3 mps 629 mmHg 28%
    17:00 +24°C° 0 mm 3 mps 629 mmHg 34%
    18:00 +21°C° 0 mm 2 mps 628 mmHg 40%
    19:00 +19°C° 0 mm 2 mps 628 mmHg 45%
    20:00 +18°C° 0 mm 1 mps 628 mmHg 49%
    21:00 +16°C° 0 mm 1 mps 628 mmHg 54%
    22:00 +15°C° 0 mm 1 mps 628 mmHg 56%
    23:00 +15°C° 0 mm 1 mps 628 mmHg 57%

    23 January, Wednesday

    Time Temperature Precipitation Wind Pressure Humidity
    00:00 +14°C° 0 mm 2 mps 627 mmHg 59%
    01:00 +14°C° 0 mm 2 mps 627 mmHg 61%
    02:00 +14°C° 0 mm 2 mps 626 mmHg 62%
    03:00 +13°C° 0 mm 2 mps 626 mmHg 63%
    04:00 +13°C° 0 mm 2 mps 626 mmHg 63%
    05:00 +13°C° 0 mm 2 mps 626 mmHg 63%
    06:00 +13°C° 0 mm 2 mps 626 mmHg 63%
    07:00 +15°C° 0 mm 2 mps 627 mmHg 56%
    08:00 +18°C° 0 mm 1 mps 628 mmHg 49%
    09:00 +20°C° 0 mm 1 mps 629 mmHg 42%
    10:00 +23°C° 0 mm 1 mps 630 mmHg 36%
    11:00 +25°C° 0 mm 1 mps 631 mmHg 30%
    12:00 +27°C° 0 mm 1 mps 632 mmHg 25%
    13:00 +27°C° 0 mm 2 mps 631 mmHg 25%
    14:00 +27°C° 0 mm 2 mps 631 mmHg 25%
    15:00 +27°C° 0 mm 3 mps 630 mmHg 25%
    16:00 +25°C° 0 mm 3 mps 630 mmHg 36%
    17:00 +22°C° 0 mm 3 mps 629 mmHg 48%
    18:00 +20°C° 0 mm 3 mps 629 mmHg 59%
    19:00 +18°C° 0 mm 3 mps 629 mmHg 67%
    20:00 +17°C° 0 mm 3 mps 630 mmHg 75%
    21:00 +16°C° 0 mm 2 mps 630 mmHg 83%
    22:00 +15°C° 0 mm 2 mps 630 mmHg 84%
    23:00 +14°C° 0 mm 2 mps 630 mmHg 85%

    24 January, Thursday

    Time Temperature Precipitation Wind Pressure Humidity
    00:00 +14°C° 0 mm 2 mps 630 mmHg 85%
    01:00 +13°C° 0 mm 2 mps 629 mmHg 85%
    02:00 +13°C° 0 mm 2 mps 629 mmHg 84%
    03:00 +13°C° 0 mm 2 mps 628 mmHg 83%
    04:00 +12°C° 0 mm 2 mps 628 mmHg 83%
    05:00 +12°C° 0 mm 2 mps 628 mmHg 83%
    06:00 +10°C° 0 mm 2 mps 628 mmHg 83%
    07:00 +12°C° 0 mm 2 mps 629 mmHg 77%
    08:00 +13°C° 0 mm 2 mps 630 mmHg 71%
    09:00 +14°C° 0 mm 2 mps 631 mmHg 66%
    10:00 +16°C° 0 mm 2 mps 631 mmHg 58%
    11:00 +18°C° 0 mm 2 mps 632 mmHg 51%
    12:00 +20°C° 0 mm 2 mps 632 mmHg 43%
    13:00 +21°C° 0 mm 2 mps 632 mmHg 42%
    14:00 +23°C° 0 mm 2 mps 631 mmHg 40%
    15:00 +24°C° 0 mm 2 mps 631 mmHg 39%
    16:00 +21°C° 0 mm 2 mps 630 mmHg 46%
    17:00 +19°C° 0 mm 2 mps 630 mmHg 54%
    18:00 +18°C° 0 mm 3 mps 629 mmHg 61%
    19:00 +16°C° 0 mm 2 mps 629 mmHg 67%
    20:00 +15°C° 0 mm 2 mps 629 mmHg 74%
    21:00 +13°C° 0 mm 2 mps 629 mmHg 80%
    22:00 +13°C° 0 mm 2 mps 629 mmHg 80%
    23:00 +12°C° 0 mm 2 mps 629 mmHg 81%

    25 January, Friday

    Time Temperature Precipitation Wind Pressure Humidity
    00:00 +12°C° 0 mm 2 mps 629 mmHg 81%
    01:00 +12°C° 0 mm 2 mps 628 mmHg 80%
    02:00 +12°C° 0 mm 2 mps 628 mmHg 79%
    03:00 +12°C° 0 mm 2 mps 628 mmHg 78%
    04:00 +12°C° 0 mm 2 mps 628 mmHg 78%
    05:00 +10°C° 0 mm 2 mps 628 mmHg 79%
    06:00 +10°C° 0 mm 2 mps 628 mmHg 79%
    07:00 +13°C° 0 mm 2 mps 629 mmHg 72%
    08:00 +14°C° 0 mm 2 mps 631 mmHg 66%
    09:00 +16°C° 0 mm 2 mps 632 mmHg 60%
    10:00 +18°C° 0 mm 3 mps 633 mmHg 55%
    11:00 +19°C° 0 mm 3 mps 633 mmHg 49%
    12:00 +21°C° 0 mm 3 mps 634 mmHg 44%
    13:00 +21°C° 0 mm 3 mps 633 mmHg 45%
    14:00 +21°C° 0 mm 3 mps 632 mmHg 46%
    15:00 +21°C° 0 mm 4 mps 632 mmHg 46%
    16:00 +19°C° 0 mm 3 mps 631 mmHg 53%
    17:00 +18°C° 0 mm 3 mps 631 mmHg 59%
    18:00 +16°C° 0 mm 3 mps 631 mmHg 65%
    19:00 +14°C° 0 mm 3 mps 631 mmHg 70%
    20:00 +12°C° 0 mm 3 mps 631 mmHg 76%
    21:00 +12°C° 0 mm 2 mps 631 mmHg 81%
    22:00 +12°C° 0 mm 2 mps 630 mmHg 82%
    23:00 +12°C° 0 mm 2 mps 630 mmHg 82%
    Show more